Location: La Tine
(46.4708°N, 7.0525°E)
Time: 05:55:40
(UTC+00:00)

HJ-1C - Pass Details

Date: 18 September 2020
Orbit: 432 x 443 km, 97.1° (Epoch: 23 October)

Event Time Altitude Azimuth Distance (km) Brightness Sun altitude
Rises 18:24:54 0° 164° (SSE) 2,396 6.8 -9.1°
Reaches altitude 10° 18:26:53 10° 163° (SSE) 1,533 5.8 -9.4°
Maximum altitude 18:30:10 81° 78° (ENE) 446 3.2 -9.9°
Drops below altitude 10° 18:33:29 10° 350° (N) 1,550 6.4 -10.5°
Sets 18:35:31 0° 349° (N) 2,425 7.5 -10.8°
